Location: Six Mile Lake
(44.9000°N, 79.7170°W)
Time: 20:51:08
(UTC-04:00)

Max Valier Satellite - Pass Details

Date: 30 June 2022
Orbit: 474 x 491 km, 97.2° (Epoch: 17 August)

Event Time Altitude Azimuth Distance (km) Brightness Sun altitude
Rises 22:05:24 0° 209° (SSW) 2,548 ? -8.5°
Reaches altitude 10° 22:08:14 10° 234° (SW) 1,678 ? -8.8°
Maximum altitude 22:10:17 14° 269° (W) 1,429 ? -9.1°
Drops below altitude 10° 22:12:20 10° 304° (WNW) 1,690 ? -9.3°
Sets 22:15:14 0° 329° (NNW) 2,585 ? -9.7°
